Location: Newark
(49.8969°N, 3.3422°E)
Time: 06:39:59
(UTC+00:00)

Vanguard 1 Rocket - Pass Details

Date: 24 January 2020
Orbit: 650 x 4226 km, 34.3° (Epoch: 27 February)

Event Time Altitude Azimuth Distance (km) Brightness Sun altitude
Rises 15:50:18 0° 272° (W) 6,280 12.6 4.1°
Reaches altitude 10° 15:54:55 10° 261° (W) 5,756 12.8 3.5°
Maximum altitude 16:09:11 27° 213° (SSW) 5,551 12.5 1.6°
Drops below altitude 10° 16:27:44 10° 167° (SSE) 7,423 12.3 -1.0°
Sets 16:35:08 0° 157° (SSE) 8,366 12.4 -2.0°
